Location: �chenoz-la-M�line
(47.6009°N, 6.1354°E)
Time: 04:36:38
(UTC+00:00)

USA 305 - Pass Details

Date: 27 January 2021
Orbit: 565 x 578 km, 54.0° (Epoch: 26 February)

Event Time Altitude Azimuth Distance (km) Brightness Sun altitude
Exits shadow 06:26:33 - 273° (W) 2,013 5.1 -7.3°
Reaches altitude 10° 06:26:57 10° 275° (W) 1,861 4.9 -7.2°
Maximum altitude 06:30:58 41° 346° (NNW) 833 3.5 -6.6°
Drops below altitude 10° 06:34:59 10° 57° (ENE) 1,865 6.1 -5.9°
Sets 06:37:21 0° 65° (ENE) 2,763 7.1 -5.6°
